Regional Weather Roundup
Issued by NWS

Home | Current Version | Previous Version | Graphics & Text | Print | Product List | Glossary On
Versions: 1 2 3 4 5 6 7 8 9 10 11 12 13 14 15 16 17 18 19 20 21 22 23 24 25 26 27
000
ASUS45 KBOU 181306
RWRCO

WEATHER ROUNDUP FOR COLORADO
NATIONAL WEATHER SERVICE DENVER/BOULDER CO
700 AM MDT FRI APR 18 2014

NOTE: "FAIR" INDICATES FEW OR NO CLOUDS BELOW 12000 FEET WITH NO
SIGNIFICANT WEATHER AND/OR OBSTRUCTIONS TO VISIBILITY.

COZ001>005-013-030-031-181400-
...NORTHWEST COLORADO...

CITY           SKY/WX    TMP DP  RH WIND       PRES   REMARKS
CRAIG          MOCLDY    40  25  55 E3        30.04F
HAYDEN         PTCLDY    36  23  60 E12       30.09R
MEEKER         PTCLDY    36  27  69 CALM      30.05S
MOUNT WERNER   PTCLDY    37  16  41 SE17      30.23S
STEAMBOAT SPGS PTCLDY    31  22  69 CALM      30.10S
WALDEN         PTCLDY    36  23  60 S10       30.13R
$$

COZ006>008-011-181400-
...WEST CENTRAL VALLEYS...

CITY           SKY/WX    TMP DP  RH WIND       PRES   REMARKS
GRAND JUNCTION PTCLDY    48  25  40 E16       30.01R
MONTROSE       MOCLDY    38  27  64 S6        30.10R
EAGLE          CLEAR     30  25  80 CALM      30.18R
RIFLE          PTCLDY    34  27  75 SE3       30.08S
DELTA          MOCLDY    40  29  64 CALM      30.08R
NUCLA            N/A     41  27  56 E3        30.12R
$$

COZ017>023-064>068-181400-
...SOUTHWEST COLORADO...

CITY           SKY/WX    TMP DP  RH WIND       PRES   REMARKS
DURANGO        PTCLDY    30  19  63 CALM      30.17R
CORTEZ         CLEAR     33  24  69 NE6       30.10R WCI  28
PAGOSA SPRINGS PTCLDY    32  20  62 CALM      30.22S
TELLURIDE      PTCLDY    41  23  48 CALM      30.22R
WOLF CREEK PAS PTCLDY    30  18  59 SW9       30.36S WCI  22
$$

COZ009-010-012-014-032>034-037-058>063-181400-
...CENTRAL COLORADO...

CITY           SKY/WX    TMP DP  RH WIND       PRES   REMARKS
ASPEN          PTCLDY    38  22  52 SW7       30.15S
BUENA VISTA    CLEAR     29  23  78 NW3       30.21S
COPPER MTN     PTCLDY    34  19  55 SW12G18   30.33S WCI  25
BERTHOUD PASS  FAIR      28  19  69 W23       30.33S WCI  14
COTTONWOOD PAS CLEAR     41  18  38 N5        30.26S
GUNNISON       CLEAR     27  19  74 CALM      30.27R
KREMMLING      CLEAR     28  21  74 CALM      30.19R
LEADVILLE      PTCLDY    25  15  66 W3        30.26R
MONARCH PASS   CLEAR     30  18  59 W28       30.43F WCI  16
SALIDA         CLEAR     39  25  58 N7        30.26R
SUNLIGHT       PTCLDY    34  23  64 CALM      30.27S
WILKERSON PASS PTCLDY    32  18  55 W10G20    30.31S WCI  24
$$

COZ069>075-181400-
...SAN LUIS VALLEY/SANGRE DE CRISTO MOUNTAINS...

CITY           SKY/WX    TMP DP  RH WIND       PRES   REMARKS
ALAMOSA        CLEAR     31  27  85 N5        30.22R WCI  26
LA VETA PASS   NOT AVBL
SAGUACHE       NOT AVBL
$$

COZ035-036-038>040-181400-
...NORTHERN COLORADO FRONT RANGE...

CITY           SKY/WX    TMP DP  RH WIND       PRES   REMARKS
DENVER INTL AP MOCLDY    47  27  45 S13       30.00R
DMNS CITY PARK   N/A     46  28  49 S6        29.99S
AURORA         PTCLDY    46  27  46 S10       30.02R
FRONT RANGE AP NOT AVBL
ERIE MUNI ARPT MOCLDY    35  32  89 CALM      29.99S
BOULDER MUN AP MOCLDY    41  30  65 CALM      29.99S
CENTENNIAL     MOCLDY    47  25  42 S6        30.02R
BROOMFIELD     MOCLDY    41  28  60 VRB3      29.99S
FORT COLLINS   CLOUDY    36  30  80 CALM      30.01R
LONGMONT       CLOUDY    36  31  81 NW5       30.01S
$$

COZ041-046-047-076>085-087-088-181400-
...PIKES PEAK/PALMER DIVIDE AND SOUTHERN FOOTHILLS...

CITY           SKY/WX    TMP DP  RH WIND       PRES   REMARKS
COLO. SPRINGS  MOCLDY    37  30  75 NE8       30.08R
A. F. ACADEMY  CLEAR     38  31  77 S2        30.07R
ELLICOTT       NOT AVBL
FALCON         CLEAR     40  28  63 NW8       30.09S
FORT CARSON    CLEAR     36  33  86 VRB3      30.05F
LIMON          CLEAR     27  26  96 CALM      30.05F
MONUMENT HILL  CLEAR     43  25  49 SW9       30.07S
TRINIDAD       CLEAR     42  31  64 SW14      30.10R
$$

COZ042>045-048>051-090-091-181400-
...NORTHEAST COLORADO...

CITY           SKY/WX    TMP DP  RH WIND       PRES   REMARKS
GREELEY ARPT   MOCLDY    30  23  74 SW5       30.00R WCI  25
AKRON          CLEAR     46  34  62 SW13      29.99R
BURLINGTON     CLEAR     37  34  89 S15       30.05F
WRAY           CLEAR     39  34  82 S14G24    30.03R
STERLING       CLEAR     37  36  93 SW6       29.98F
HOLYOKE        CLEAR     37  34  87 S5        30.01S
FORT MORGAN    CLEAR     36  33  88 SW3       30.00S
$$

COZ086-089-092>099-181400-
...SOUTHEAST COLORADO...

CITY           SKY/WX    TMP DP  RH WIND       PRES   REMARKS
PUEBLO         CLEAR     36  34  92 W3        30.06R
LA JUNTA       CLEAR     37  34  89 W9        30.06R
LAMAR          CLEAR     41  35  79 SW8       30.05R
SPRINGFIELD      N/A     40  35  83 S20       30.07F
$$



USA.gov is the U.S. government's official web portal to all federal, state and local government web resources and services.